[[{"header":{"parameterUnit":"m.s-1","parameterCategory":1,"la1":30.2991,"la2":30.254,"lo1":-89.0895,"lo2":-89.0444,"dx":0.0017,"dy":0.0017,"nx":28,"ny":28,"refTime":"2022-11-13T15:00:00:Z","depth":0,"parameterNumber":2,"parameterNumberName":"U-component_of_WINDS"},"data":[0,0,0,0,0,0,0,0,0,0,0,0,0,0,0,0,0,0,0,0,0,0,0,0,0,0,0,0,0,0,0,0,0,0,0,0,0,0,0,0,0,0,0,0,0,0,0,0,0,0,0,0,0,0,0,0,0,0,-4.9984,-4.9984,0,-5.0009,-5.0009,-5.0009,-4.9904,-4.9901,-4.9898,-4.9895,-4.9918,-4.9922,-4.9925,0,0,0,0,0,0,0,0,0,0,0,0,0,-4.9843,-4.9847,-4.9984,-4.9984,-4.9985,-5.0009,-5.0009,-5.001,-4.9905,-4.9901,-4.9897,-4.9893,-4.9917,-4.9921,-4.9925,0,0,0,0,0,0,0,0,0,0,0,0,0,-4.989,-4.9848,-4.9984,-4.9935,-4.9931,-5.0009,-5.0009,-5.001,-4.9905,-4.9901,-4.9896,-4.9892,-4.9916,-4.9921,-4.9926,-5.0051,0,0,-4.9942,-4.9944,0,0,0,0,0,0,0,0,-4.9888,-4.9895,-4.9942,-4.9939,-4.9934,-4.9949,-4.9968,-5.0023,-4.9907,-4.9915,-4.9895,-4.9889,-4.9932,-4.9936,-4.995,-5.0052,-5.0053,-4.9942,-4.9946,-4.9948,-4.9949,0,0,0,0,0,0,0,-4.9884,-4.9894,-4.9994,-4.9943,-4.9938,-4.9911,-4.9913,-4.9978,-4.9949,-4.9914,-4.9906,-4.9911,-4.9929,-4.9946,-4.995,-5.0053,-4.9942,-4.9947,-4.995,-4.9952,-5.0259,-5.0264,0,0,0,0,0,0,-4.9888,-4.9892,-4.9993,-4.9994,-4.9899,-4.9918,-4.9919,-4.9949,-4.9948,-4.9944,-4.9915,-4.9906,-4.9939,-4.9944,-4.995,-5.0096,-4.9948,-4.9953,-4.9956,-5.0254,-5.026,-5.0265,0,0,0,0,0,0,-4.9885,-4.9898,-4.9992,-4.9941,-4.9951,-4.9925,-4.9959,-4.9952,-4.9968,-4.9949,-4.9943,-4.9937,-4.9935,-4.9943,-5.0027,-5.0095,-4.9955,-4.996,-5.0248,-5.0256,-5.0263,-5.0389,0,0,0,0,0,0,-4.9882,-4.9898,-4.9945,-4.9943,-4.9954,-5.0069,-4.9963,-4.9955,-4.9978,-4.9966,-4.9968,-4.9964,-4.9932,-5.002,-5.0032,-5.01,-4.9964,-5.0242,-5.0251,-5.026,-5.0379,-5.04,-5.0418,0,0,0,0,0,-4.9877,-4.9979,-4.9948,-4.9961,-5.0013,-5.0073,-5.0079,-5.0041,-4.9984,-5.0031,-5.0019,-4.9964,-5.0087,-5.0029,-5.0042,-5.0113,-5.0237,-5.0249,-5.026,-5.037,-5.0396,-5.0418,0,0,0,0,0,0,-4.9989,-4.9978,-4.9943,-5.0048,-5.0063,-5.0055,-5.0113,-5.007,-5.01,-5.0088,-5.0039,-5.004,-5.0133,-5.0131,-5.0067,-5.0234,-5.0152,-5.0166,-5.0231,-5.0256,-5.0275,-5.0272,-4.9968,0,0,0,0,0,-5.0027,-5.0077,-5.0064,-5.0158,-5.0167,-5.014,-5.0164,-5.0134,-5.0146,-5.0151,-5.0145,-5.0158,-5.02,-5.0228,-5.0265,-5.0379,-5.0377,-5.0434,-5.0454,-5.047,-5.0482,-5.0542,-5.0567,-5.0302,-5.0302,-5.0302,0,0,-5.0103,-5.0103,-5.0138,-5.018,-5.0187,-5.024,-5.0145,-5.0204,-5.0242,-5.016,-5.0238,-5.0235,-5.0247,-5.0346,-5.0389,-5.0348,-5.0556,-5.0484,-5.0498,-5.0501,-5.0556,-5.0581,-5.0603,-5.031,-5.0308,-5.0307,0,0,-5.0269,-5.0275,-5.0353,-5.0363,-5.0376,-5.0358,-5.0377,-5.0376,-5.0371,-5.045,-5.0389,-5.0433,-5.0506,-5.0517,-5.0532,-5.0704,-5.0655,-5.0718,-5.082,-5.0879,-5.09,-5.0918,-5.0978,-5.1,-5.0731,-5.0731,-5.0731,0,-5.0362,-5.0439,-5.0399,-5.0463,-5.0483,-5.0412,-5.0491,-5.0502,-5.0527,-5.0542,-5.0495,-5.0585,-5.0588,-5.0689,-5.0731,-5.0746,-5.0765,-5.0716,-5.09,-5.0918,-5.0934,-5.0991,-5.1014,-5.0738,-5.0737,-5.0737,-5.0736,0,-5.0553,-5.0607,-5.0669,-5.0695,-5.0722,-5.0793,-5.0763,-5.0796,-5.0764,-5.075,-5.0831,-5.0833,-5.0869,-5.0891,-5.086,-5.0987,-5.0961,-5.0909,-5.0824,-5.0968,-5.102,-5.1042,-5.0749,-5.0746,-5.0744,-5.0742,0,0,-5.0787,-5.0792,-5.0815,-5.0826,-5.0836,-5.0877,-5.0945,-5.0981,-5.101,-5.103,-5.1084,-5.1148,-5.11,-5.1117,-5.1087,-5.1139,-5.1274,-5.108,-5.1079,-5.1114,-5.1413,-5.1452,-5.1477,-5.1243,-5.1247,-5.125,-5.1412,0,-5.0949,-5.1065,-5.1032,-5.1148,-5.1198,-5.1133,-5.1191,-5.1204,-5.1194,-5.1233,-5.1221,-5.1267,-5.12,-5.121,-5.1259,-5.1248,-5.1333,-5.1236,-5.1292,-5.1294,-5.1289,-5.1505,-5.1545,-5.1698,-5.1432,-5.1436,-5.1438,0,-5.1152,-5.1181,-5.1303,-5.1305,-5.1325,-5.1379,-5.1409,-5.1449,-5.1461,-5.145,-5.1471,-5.143,-5.1496,-5.1414,-5.1504,-5.1439,-5.146,-5.1458,-5.1463,-5.1465,-5.1373,-5.1511,-5.1746,-5.1768,-5.147,-5.1468,-5.1466,0,-5.131,-5.1379,-5.1461,-5.1472,-5.1478,-5.1517,-5.1521,-5.1529,-5.1553,-5.158,-5.1595,-5.1629,-5.1648,-5.1675,-5.1645,-5.1588,-5.1739,-5.1655,-5.173,-5.1731,-5.1763,-5.1761,-5.2003,-5.1781,-5.178,-5.178,-5.178,0,-5.1492,-5.1569,-5.1531,-5.1581,-5.1665,-5.1626,-5.171,-5.1707,-5.1715,-5.1763,-5.1709,-5.1755,-5.1713,-5.1755,-5.1732,-5.181,-5.1819,-5.1811,-5.1803,-5.1814,-5.1815,-5.1826,-5.1813,-5.1786,-5.1785,-5.1784,-5.1782,0,-5.1681,-5.1659,-5.1743,-5.1742,-5.1744,-5.1806,-5.1804,-5.185,-5.1836,-5.1897,-5.1909,-5.1888,-5.1935,-5.1908,-5.1956,-5.194,-5.2041,-5.202,-5.2036,-5.203,-5.2107,-5.2099,-5.2362,-5.2394,-5.2153,-5.2156,-5.2158,0,-5.1798,-5.1855,-5.1861,-5.1889,-5.1897,-5.1944,-5.1968,-5.1933,-5.1961,-5.1981,-5.2024,-5.2066,-5.2098,-5.2176,-5.2164,-5.22,-5.2178,-5.2268,-5.2183,-5.2193,-5.2178,-5.2174,-5.2179,-5.2284,-5.2287,-5.229,-5.2291,0,-5.2007,-5.1994,-5.2032,-5.2067,-5.2098,-5.2124,-5.2145,-5.2171,-5.2136,-5.217,-5.2218,-5.2243,-5.2292,-5.2334,-5.2366,-5.2368,-5.2324,-5.2319,-5.2338,-5.2348,-5.2355,-5.2351,-5.2081,-5.2312,-5.231,-5.2309,-5.2308,-5.2307,-5.2162,-5.221,-5.2221,-5.2266,-5.2278,-5.2299,-5.2342,-5.2335,-5.2375,-5.2412,-5.2389,-5.2445,-5.2457,-5.2494,-5.2503,-5.2546,-5.251,-5.2538,-5.2544,-5.2551,-5.2561,-5.2351,-5.2552,-5.2551,-5.2551,-5.255,-5.255,0,-5.2366,-5.2371,-5.2413,-5.2444,-5.2479,-5.2437,-5.2458,-5.249,-5.254,-5.2555,-5.2588,-5.2643,-5.2684,-5.2677,-5.2714,-5.275,-5.273,-5.276,-5.2756,-5.2757,-5.2592,-5.2571,-5.2775,-5.2775,-5.2775,-5.2775,-5.2775,-5.2775,-5.2477,-5.2556,-5.2544,-5.2629,-5.2633,-5.2688,-5.2703,-5.2722,-5.2734,-5.2798,-5.2833,-5.2828,-5.2834,-5.2872,-5.2907,-5.2904,-5.2919,-5.2957,-5.2946,-5.2791,-5.2769,-5.2748,-5.2727,-5.2961,-5.2961,-5.3107,-5.3108,-5.3109]},{"header":{"parameterUnit":"m.s-1","parameterCategory":1,"la1":30.2991,"la2":30.254,"lo1":-89.0895,"lo2":-89.0444,"dx":0.0017,"dy":0.0017,"nx":28,"ny":28,"refTime":"2022-11-13T15:00:00:Z","depth":0,"parameterNumber":3,"parameterNumberName":"V-component_of_WINDS"},"data":[0,0,0,0,0,0,0,0,0,0,0,0,0,0,0,0,0,0,0,0,0,0,0,0,0,0,0,0,0,0,0,0,0,0,0,0,0,0,0,0,0,0,0,0,0,0,0,0,0,0,0,0,0,0,0,0,0,0,0.1751,0.1753,0,0.1877,0.1878,0.188,0.1962,0.1962,0.1963,0.1963,0.2085,0.2088,0.2091,0,0,0,0,0,0,0,0,0,0,0,0,0,0.1579,0.1581,0.1751,0.1753,0.1754,0.1876,0.1878,0.188,0.1962,0.1962,0.1963,0.1964,0.2084,0.2088,0.2091,0,0,0,0,0,0,0,0,0,0,0,0,0,0.1673,0.1582,0.1751,0.181,0.1817,0.1876,0.1878,0.188,0.1962,0.1962,0.1963,0.1964,0.2083,0.2087,0.2091,0.21,0,0,0.2104,0.2106,0,0,0,0,0,0,0,0,0.1668,0.168,0.18,0.1806,0.1814,0.1905,0.1862,0.1954,0.1961,0.1906,0.1963,0.1964,0.2024,0.2033,0.2055,0.2106,0.2111,0.2104,0.2107,0.2108,0.211,0,0,0,0,0,0,0,0.1661,0.1675,0.1801,0.1801,0.181,0.1829,0.1843,0.188,0.1959,0.1911,0.1918,0.1932,0.2028,0.205,0.2058,0.2113,0.2104,0.2108,0.211,0.2112,0.218,0.218,0,0,0,0,0,0,0.1646,0.1669,0.1797,0.1805,0.1742,0.1831,0.1848,0.1874,0.1959,0.1972,0.1931,0.1935,0.2043,0.2053,0.2063,0.2081,0.2108,0.2112,0.2115,0.2181,0.218,0.2179,0,0,0,0,0,0,0.1642,0.1657,0.1792,0.1739,0.1757,0.1834,0.1863,0.1876,0.1899,0.1974,0.1987,0.194,0.2044,0.2057,0.2091,0.2086,0.2114,0.2118,0.2181,0.2181,0.218,0.2116,0,0,0,0,0,0,0.1637,0.1655,0.166,0.1738,0.176,0.1819,0.1863,0.1878,0.1907,0.1914,0.1985,0.1998,0.2046,0.2085,0.2095,0.2092,0.2121,0.2182,0.2181,0.218,0.2118,0.2113,0.2107,0,0,0,0,0,0.163,0.1635,0.166,0.1675,0.1768,0.1819,0.1831,0.1888,0.1906,0.1911,0.196,0.1996,0.2085,0.2087,0.21,0.2098,0.2183,0.2181,0.218,0.2121,0.2114,0.2108,0,0,0,0,0,0,0.1551,0.1646,0.1675,0.1704,0.1753,0.1833,0.1841,0.1878,0.192,0.1925,0.1991,0.2006,0.2035,0.207,0.2071,0.2113,0.2138,0.2139,0.2089,0.2083,0.2077,0.2069,0.2124,0,0,0,0,0,0.1537,0.1572,0.1653,0.1671,0.1695,0.1763,0.1788,0.1828,0.188,0.19,0.1951,0.1998,0.2038,0.2062,0.2101,0.2124,0.2141,0.2129,0.2123,0.2118,0.2119,0.2135,0.2131,0.2175,0.2175,0.2175,0,0,0.1508,0.1565,0.1582,0.1657,0.1699,0.1734,0.178,0.1813,0.184,0.1904,0.1942,0.198,0.2038,0.2067,0.2082,0.2097,0.2111,0.2116,0.2112,0.2115,0.2134,0.2129,0.2126,0.2174,0.2174,0.2174,0,0,0.1474,0.1519,0.1542,0.1585,0.165,0.1696,0.1701,0.1776,0.1805,0.1844,0.1894,0.1925,0.199,0.203,0.2059,0.2043,0.2079,0.2054,0.2025,0.2041,0.2037,0.2035,0.2031,0.2029,0.2054,0.2053,0.2053,0,0.143,0.1485,0.1548,0.158,0.1612,0.1675,0.1698,0.1736,0.1809,0.1829,0.1845,0.1931,0.1974,0.2015,0.2011,0.2031,0.204,0.2046,0.2033,0.2031,0.203,0.2027,0.2025,0.205,0.205,0.2051,0.2051,0,0.1429,0.1467,0.1476,0.155,0.1583,0.1609,0.1675,0.1701,0.1738,0.1782,0.1821,0.1876,0.1929,0.1941,0.1976,0.1988,0.1995,0.2021,0.2048,0.2021,0.202,0.2019,0.2045,0.2047,0.2048,0.2048,0,0,0.1347,0.1457,0.146,0.1496,0.1573,0.1603,0.1633,0.1688,0.1709,0.1757,0.1785,0.184,0.1866,0.1899,0.1939,0.1952,0.1939,0.1977,0.1979,0.197,0.1958,0.1939,0.1937,0.1963,0.1963,0.1963,0.1953,0,0.1327,0.1387,0.1445,0.1484,0.1521,0.1582,0.1609,0.1659,0.1701,0.1737,0.1783,0.1822,0.1852,0.1873,0.1889,0.1937,0.1938,0.1938,0.1989,0.199,0.1975,0.1936,0.1916,0.1904,0.1953,0.1953,0.1953,0,0.1311,0.1361,0.1404,0.1481,0.1499,0.1522,0.1578,0.1612,0.167,0.17,0.1738,0.1781,0.1816,0.1839,0.1887,0.1887,0.1911,0.1938,0.1939,0.1947,0.1971,0.1944,0.1902,0.19,0.1952,0.1952,0.1952,0,0.125,0.1327,0.1365,0.1393,0.1482,0.1498,0.1535,0.1594,0.1625,0.1673,0.1694,0.1744,0.1772,0.181,0.1865,0.1877,0.1909,0.1936,0.1935,0.1934,0.194,0.1939,0.1902,0.1952,0.1952,0.1952,0.1952,0,0.1222,0.1247,0.134,0.1362,0.1392,0.1458,0.1485,0.1528,0.1581,0.1612,0.1667,0.1695,0.1766,0.1803,0.1846,0.1881,0.1892,0.1918,0.1929,0.1914,0.1911,0.1932,0.1935,0.1952,0.1952,0.1952,0.1952,0,0.116,0.1223,0.1268,0.1351,0.1372,0.139,0.1461,0.1485,0.1531,0.1571,0.1583,0.1655,0.1701,0.1761,0.1824,0.1854,0.1884,0.1901,0.1866,0.1873,0.187,0.187,0.1846,0.1847,0.1894,0.1893,0.1893,0,0.1139,0.116,0.1246,0.1273,0.131,0.1351,0.1384,0.145,0.1481,0.155,0.1566,0.1617,0.1661,0.1732,0.1789,0.1838,0.1858,0.1846,0.1865,0.185,0.186,0.1859,0.1862,0.1841,0.1841,0.184,0.1839,0,0.1096,0.1127,0.1173,0.123,0.1268,0.1315,0.1365,0.1383,0.1459,0.149,0.154,0.1575,0.1642,0.1692,0.175,0.1787,0.1826,0.1833,0.1836,0.1821,0.1801,0.1814,0.1855,0.1833,0.1834,0.1834,0.1835,0.1835,0.1056,0.1079,0.1144,0.1193,0.1238,0.1284,0.1312,0.1363,0.1407,0.1469,0.1504,0.1553,0.1612,0.1694,0.1729,0.1768,0.1782,0.1786,0.1787,0.1787,0.1784,0.1794,0.1778,0.1778,0.1779,0.1779,0.1779,0,0.1017,0.1063,0.1108,0.1178,0.1217,0.1253,0.131,0.134,0.1383,0.1436,0.148,0.1538,0.1587,0.1649,0.1702,0.1721,0.1741,0.1733,0.1733,0.1742,0.1766,0.176,0.1717,0.1717,0.1717,0.1717,0.1717,0.1717,0.1002,0.1044,0.1083,0.1148,0.1193,0.1243,0.1273,0.1316,0.1359,0.1422,0.1465,0.1505,0.1562,0.1621,0.1668,0.1684,0.1702,0.169,0.1712,0.1734,0.174,0.1745,0.1739,0.1693,0.1693,0.1685,0.1685,0.1684]}]]